www.pogodaiklimat.ru

Погода и климат >> Архив погоды >> Бенин >> Натитингу


ПОГОДА в Натитингу

  • Прогноз погоды в Натитингу
  • Монитор погоды в Натитингу

АРХИВ ПОГОДЫ в Натитингу

Время (UTC), дата Ветер
(напр.,м/с)
 
Видим.   Явления Облачность Т
(С)
Тd
(С)
f
(%)
Тe
(С)
Тes
(С)
Комфортность P
(гПа)
Po
(гПа)
Тmin
(С)
Tmax
(С)
R
(мм)
R24
(мм)
S
(см)
09 11.02 С 4 8000 м мгла 6/0
[Ci sp]
+26.5 +9.0 33 +27 +32 жарко 1012.2 964.7
12 11.02 С 2 8000 м мгла 6/0
[Ci sp]
+32.5 +16.2 38 +35 +52 опасность
солнечного
удара
1010.3 963.1
15 11.02 штиль 0 8000 м мгла 8/0
[Ci sp]
+35.2 +11.1 23 +35 +44 очень
жарко
1006.5 959.8
18 11.02 штиль 0 8000 м мгла 8/0
[Ci sp]
+31.5 +13.8 34 +33 +33 жарко 1007.8 960.6 +35.5
21 11.02 штиль 0 8000 м мгла 8/0
[Ci sp]
+25.5 +15.0 52 +28 +28 жарко 1010.1 962.8
00 12.02 штиль 0 8000 м мгла 8/0
[Ci sp]
+22.5 +12.2 52 +25 +25 комфорт 1010.2 963.0
03 12.02 штиль 0 8000 м мгла 8/0
[Ci sp]
+19.5 +14.5 73 +21 +21 комфорт 1008.9 961.8
06 12.02 штиль 0 8000 м мгла 8/0
[Ci sp]
+18.5 +11.4 63 +19 +19 1010.3 962.8 +18.0
09 12.02 СВ 5 3000 м мгла 8/0
[Ci sp]
+26.0 +6.9 30 +26 +30 жарко 1011.9 964.5
12 12.02 СВ 1 3000 м мгла 8/0
[Ci sp]
+32.5 +10.6 26 +32 +50 жарко 1010.5 963.3
15 12.02 СВ 3 3500 м мгла 8/0
[Ci sp]
+34.5 +11.4 25 +34 +40 очень
жарко
1007.8 960.7
18 12.02 СВ 2 4000 м мгла 8/0
[Ci sp]
+31.2 +13.8 35 +33 +33 жарко 1009.0 961.5 +35.0
21 12.02 штиль 0 4000 м мгла 6/0
[Ci sp]
+24.5 +15.7 58 +28 +28 душно 1011.6 964.1
00 13.02 штиль 0 5000 м мгла 6/0
[Ci sp]
+21.2 +12.2 56 +23 +23 комфорт 1011.5 964.2
03 13.02 штиль 0 5000 м мгла 6/0
[Ci sp]
+19.2 +11.0 59 +20 +20 1010.4 963.2
06 13.02 штиль 0 5000 м мгла 6/0
[Ci sp]
+18.5 +9.0 54 +19 +19 1011.3 963.7 +17.7
09 13.02 В 4 3000 м мгла 6/0
[Ci sp]
+27.3 +10.4 35 +28 +33 жарко 1012.6 965.1
12 13.02 В 1 3000 м мгла 8/0
[Ci sp]
+32.6 +12.8 30 +33 +52 опасность
солнечного
удара
1011.3 964.0
15 13.02 СВ 2 3000 м мгла 8/0
[Ci sp]
+34.8 +13.3 27 +35 +42 очень
жарко
1008.8 961.7
18 13.02 СВ 1 3000 м мгла 8/0
[Ac trans Ci sp]
+31.5 +17.6 43 +35 +35 очень
душно
1009.5 962.0 +35.1
21 13.02 С 2 3000 м мгла 6/0
[Ci sp]
+26.0 +12.5 43 +28 +28 жарко 1011.9 964.5
00 14.02 штиль 0 3000 м мгла 6/0
[Ci sp]
+22.5 +12.4 53 +25 +25 комфорт 1011.7 964.5
03 14.02 штиль 0 3000 м мгла 6/0
[Ci sp]
+19.8 +11.3 58 +21 +21 комфорт 1011.2 964.0
06 14.02 штиль 0 8000 м мгла 8/0
[Ci sp]
+18.9 +9.3 54 +19 +19 1012.3 964.7 +17.7
09 14.02 СВ 4 8000 м мгла 8/0
[Ci sp]
+26.9 +7.6 29 +27 +32 жарко 1014.0 966.5
12 14.02 ЮВ 4 8000 м мгла 8/0
[Ci sp]
+32.1 +11.4 28 +32 +43 жарко 1012.7 965.4
15 14.02 С 3 8000 м мгла 8/0
[Ci sp]
+36.5 +16.1 30 +39 +45 очень
душно
1010.1 963.0
18 14.02 В 2 8000 м мгла 8/0
[Ci sp]
+33.0 +17.9 41 +37 +37 очень
душно
1010.3 962.8 +36.0
21 14.02 штиль 0 8000 м мгла 8/0
[Ci sp]
+26.6 +14.6 48 +29 +29 жарко 1013.4 966.0
00 15.02 штиль 0 8000 м мгла 8/0
[Ci sp]
+22.9 +13.9 57 +26 +26 жарко 1013.4 966.1
03 15.02 штиль 0 8000 м мгла 8/0
[Ci sp]
+22.2 +9.1 43 +24 +24 комфорт 1012.6 965.6
06 15.02 СВ 3 8000 м мгла 8/0
[Ci sp]
+22.0 +8.3 41 +23 +23 комфорт 1014.6 966.7 +17.5
09 15.02 В 4 8000 м мгла 8/0
[Ci sp]
+25.0 +8.8 36 +26 +31 жарко 1015.6 968.0
12 15.02 С 2 8000 м мгла 8/0
[Ci sp]
+31.0 +10.6 28 +31 +47 жарко 1013.5 966.1
15 15.02 С 2 6000 м мгла 8/0
[Ci sp]
+34.2 +12.6 27 +34 +42 очень
жарко
1010.1 963.0
18 15.02 штиль 0 6000 м мгла 8/0
[Ci sp]
+31.2 +15.9 40 +34 +34 душно 1010.4 963.1 +34.9
21 15.02 штиль 0 6000 м мгла 8/0
[Ci sp]
+25.0 +14.3 51 +27 +27 жарко 1013.2 965.5
00 16.02 штиль 0 2800 м мгла 8/0
[Ci sp]
+22.0 +15.5 67 +26 +26 душно 1011.8 964.4
06 16.02 штиль 0 8000 м мгла 8/0
[Ci sp]
+19.0 +9.9 56 +20 +20 1012.2 964.6 +17.7
09 16.02 СВ 2 6000 м мгла 8/0
[Ci sp]
+26.2 +9.8 36 +27 +35 жарко 1013.9 966.3
12 16.02 штиль 0 6000 м мгла 8/0
[Ci sp]
+31.5 +11.4 29 +32 +53 опасность
солнечного
удара
1011.9 964.6
15 16.02 СВ 2 6000 м мгла 8/0
[Ac As Cs]
+35.3 +12.2 25 +35 +43 очень
жарко
1008.5 961.4
18 16.02 штиль 0 7000 м мгла 8/0
[Ci sp]
+32.2 +18.0 43 +37 +37 очень
душно
1008.8 961.4 +35.7
21 16.02 штиль 0 6000 м мгла 8/0
[Ci sp]
+25.0 +14.7 53 +28 +28 жарко 1011.8 964.3
00 17.02 штиль 0 6000 м мгла 8/0
[Ci sp]
+23.0 +1.7 25 +22 +22 комфорт 1012.2 964.9
03 17.02 штиль 0 6000 м мгла 8/0
[Ci sp]
+19.5 +11.6 60 +21 +21 комфорт 1010.6 963.4
06 17.02 штиль 0 6000 м мгла 8/0
[Ci sp]
+17.5 +10.2 62 +18 +18 1012.7 965.0 +17.4
09 17.02 В 2 5000 м мгла 8/0
[Ci sp]
+25.7 +9.3 35 +26 +34 жарко 1013.2 965.6
12 17.02 Ю 1 5000 м мгла 8/0
[Ci sp]
+33.5 +16.4 36 +36 +55 опасность
солнечного
удара
1010.6 963.6
15 17.02 СЗ 2 5000 м мгла 8/0
[Ci sp]
+36.4 +17.2 32 +39 +47 очень
душно
1007.5 960.6
18 17.02 штиль 0 5000 м мгла 8/0
[Ci sp]
+33.7 +22.3 51 +43 +43 опасность
перегрева
1008.2 960.9 +36.7
21 17.02 штиль 0 5000 м мгла 8/0
[Ci sp]
+27.3 +16.1 50 +31 +31 душно 1010.9 963.6
00 18.02 штиль 0 5000 м мгла 8/0
[Ci sp]
+24.0 +14.1 54 +26 +26 жарко 1011.3 964.3
03 18.02 СВ 1 5000 м мгла 8/0
[Ci sp]
+21.0 +12.6 59 +25 +25 комфорт 1009.1 962.1
06 18.02 штиль 0 5000 м мгла 8/0
[Ci sp]
+19.8 +11.9 60 +21 +21 комфорт 1009.8 962.6 +19.0

 

Местоположение метеостанции Натитингу (Бенин): широта 10.32 долгота 1.38 высота над уровнем моря 461 м.

В архиве по умолчанию представлена погода в Натитингу за последнюю неделю. Архивные данные за месяц целиком и за предыдущие месяцы, начиная с января 2011 года, Вы можете получить, выбрав интересующий диапазон дат из раскрывающегося списка и нажав кнопку "Ввод!".


*Определитесь, кто Вы:
робот инопланетянин человек

Внимание! Время в таблицах - всемирное. Для получения местного времени необходимо прибавить поправку, которая равна 1 ч.

Смотрите также архив погоды в соседних городах и на ближайших метеорологических станциях:

Погода в Ньамтугу (Того) (68 км)
Погода в Каре (Того) (89 км)
Погода в Манго (Того) (100 км)
Погода в Дапаоне (Того) (128 км)
Погода в Сокоде (Того) (151 км)
Погода в Параку (Бенин) (174 км)
Погода в Йенди (Гана) (181 км)
Погода в Канди (Бенин) (192 км)
Погода в Фада-Нгурме (Буркина-Фасо) (220 км)
Погода в Тамале (Гана) (261 км)

Пояснения к столбцам:

Ветер - указаны скорость ветра в м/с - средняя за 10 мин, порывы в срок и между сроками (в фигурных скобках) и направление, откуда дует ветер: С - северный, СВ - северо-восточный, В - восточный, ЮВ - юго-восточный, Ю - южный, ЮЗ - юго-западный, З - западный, СЗ - северо-западный.
Видимость - горизонтальная дальность видимости в метрах или километрах. При видимости от 1 до 10 км при отсутствии осадков обычно наблюдается дымка, при ухудшении видимости до 1 км и менее - туман. В сухую погоду видимость может ухудшаться дымом, пылью или мглою.
Явления - указаны атмосферные явления, наблюдавшиеся в срок или в последний час перед сроком; фигурными скобками обозначены явления, наблюдавшиеся между сроками (за 1-3 часа до срока); квадратными скобками обозначены град или гололедные отложения с указанием их диаметра в мм.
Облачность - указаны через наклонную черту общая и нижняя облачность в баллах и высота нижней границы облаков в метрах; квадратными скобками обозначены формы облаков: Ci - перистые, Cs - перисто-слоистые, Cc - перисто-кучевые, Ac - высококучевые, As - высокослоистые, Sc - слоисто-кучевые, Ns - слоисто-дождевые, Cu - кучевые, Cb - кучево-дождевые. Подробнее классификацию облаков см. в Атласе облаков (PDF).
T - Температура воздуха - температура, измеренная на высоте 2 м над землей.
Td - Температура точки росы - температура, при понижении до которой содержащийся в воздухе водяной пар достигнет насыщения.
f - Относительная влажность воздуха - влажноcть воздуха, измеренная на высоте 2 м над землей.
Te - Эффективная температура - температура, которую ощущает одетый по сезону человек в тени. Характеристика душности погоды. При расчете учитывается влияние влажности воздуха и скорости ветра на теплоощущения человека.
Tes - Эффективная температура на солнце - температура, которую ощущает человек, с поправкой на солнечный нагрев. Характеристика знойности погоды. Зависит от высоты солнца над горизонтом, облачности и скорости ветра. Ночью, в пасмурную погоду, а также при ветре 12 м/с и более поправка равна нулю.
P - Атмосферное давление - приведенное к уровню моря атмосферное давление.
Po - Атмосферное давление - измеренное на уровне метеостанции атмосферное давление.
Tmin - Минимальная температура - минимум температуры воздуха на высоте 2 м над землей.
Tmax - Максимальная температура - максимум температуры воздуха на высоте 2 м над землей.
R - Количество осадков - Количество выпавших осадков за период времени, мм. При наведении курсора мыши на число - период времени, за который выпало указанное количество осадков.
R24 - Количество осадков - Количество выпавших осадков за 24 часа, мм.
S - Снежный покров - Высота снежного покрова, см. При наведении курсора мыши на число - состояние снежного покрова и степень покрытия местности в баллах.